TimeEST,TemperatureF,Dew PointF,Humidity,Sea Level PressureIn,VisibilityMPH,Wind Direction,Wind SpeedMPH,Gust SpeedMPH,PrecipitationIn,Events,Conditions,WindDirDegrees,DateUTC
12:56 AM,37.0,33.1,86,29.86,7.0,Calm,Calm,-,N/A,,Overcast,0,2014-01-18 05:56:00
1:56 AM,37.0,33.1,86,29.85,7.0,ESE,4.6,-,N/A,,Overcast,110,2014-01-18 06:56:00
2:56 AM,37.9,35.1,89,29.83,9.0,Calm,Calm,-,N/A,,Overcast,0,2014-01-18 07:56:00
3:56 AM,37.0,34.0,89,29.79,9.0,North,3.5,-,N/A,,Mostly Cloudy,350,2014-01-18 08:56:00
4:56 AM,36.0,33.1,89,29.78,8.0,Calm,Calm,-,N/A,,Clear,0,2014-01-18 09:56:00
5:56 AM,36.0,32.0,86,29.74,9.0,ENE,3.5,-,N/A,,Overcast,70,2014-01-18 10:56:00
6:56 AM,35.1,32.0,89,29.73,8.0,Calm,Calm,-,N/A,,Overcast,0,2014-01-18 11:56:00
7:56 AM,37.0,33.1,86,29.71,10.0,NE,5.8,-,N/A,,Overcast,50,2014-01-18 12:56:00
8:56 AM,39.0,34.0,82,29.70,10.0,ENE,5.8,-,0.00,Rain,Light Rain,60,2014-01-18 13:56:00
9:56 AM,41.0,35.1,79,29.67,10.0,East,6.9,-,0.00,,Scattered Clouds,80,2014-01-18 14:56:00
10:56 AM,46.0,37.9,73,29.65,10.0,Variable,3.5,-,N/A,,Mostly Cloudy,0,2014-01-18 15:56:00
11:19 AM,46.4,37.4,71,29.64,10.0,South,8.1,-,N/A,,Mostly Cloudy,190,2014-01-18 16:19:00
11:56 AM,46.0,36.0,68,29.62,10.0,SW,10.4,-,N/A,,Mostly Cloudy,220,2014-01-18 16:56:00
12:17 PM,42.8,35.6,76,29.62,10.0,WNW,16.1,-,N/A,,Mostly Cloudy,290,2014-01-18 17:17:00
12:56 PM,41.0,32.0,70,29.61,10.0,WNW,15.0,-,0.00,Rain,Light Rain,300,2014-01-18 17:56:00
1:17 PM,39.2,33.8,81,29.62,10.0,WNW,17.3,-,0.00,,Overcast,300,2014-01-18 18:17:00
1:56 PM,37.9,32.0,79,29.63,10.0,NW,16.1,-,0.00,,Mostly Cloudy,310,2014-01-18 18:56:00
2:56 PM,37.9,32.0,79,29.64,10.0,WNW,12.7,19.6,N/A,,Mostly Cloudy,290,2014-01-18 19:56:00
3:56 PM,37.0,28.9,73,29.67,10.0,WNW,13.8,-,N/A,,Overcast,290,2014-01-18 20:56:00
4:56 PM,36.0,26.1,67,29.71,10.0,WNW,17.3,24.2,N/A,,Scattered Clouds,290,2014-01-18 21:56:00
5:56 PM,34.0,23.0,64,29.73,10.0,WNW,13.8,21.9,N/A,,Partly Cloudy,290,2014-01-18 22:56:00
6:56 PM,33.1,21.9,64,29.74,10.0,WNW,12.7,-,N/A,,Partly Cloudy,300,2014-01-18 23:56:00
7:56 PM,32.0,21.0,64,29.76,10.0,West,13.8,20.7,N/A,,Mostly Cloudy,280,2014-01-19 00:56:00
8:56 PM,32.0,19.9,61,29.78,10.0,West,10.4,-,N/A,,Mostly Cloudy,280,2014-01-19 01:56:00
9:56 PM,30.9,19.0,61,29.78,10.0,WNW,10.4,-,N/A,,Mostly Cloudy,290,2014-01-19 02:56:00
10:56 PM,28.9,19.0,67,29.78,10.0,WNW,9.2,-,N/A,,Scattered Clouds,290,2014-01-19 03:56:00
11:56 PM,27.0,18.0,69,29.82,10.0,WSW,8.1,-,N/A,,Scattered Clouds,250,2014-01-19 04:56:00